User: anonymous
Location: Caltech
(34.1382°N, 118.1253°W)
Time: 16:57:03
(UTC-07:00)
Language:

Courier 1B - Orbit

View from above orbital plane
View from above orbital plane
View from above satellite
View from above satellite

Ground track
Ground track

The orbit data is extracted from the following two-line orbital elements,

1 00058U 60013A   14273.38418184  .00000092  00000-0  14428-4 0  7809
2 00058 028.3267 242.6312 0165124 070.6002 291.2311 13.46281315657682
Epoch (UTC): 30 September 2014 09:13:13
Eccentricity: 0.0165124
inclination: 28.3267°
perigee height: 963 km
apogee height: 1209 km
right ascension of ascending node: 242.6312°
argument of perigee: 70.6002°
revolutions per day: 13.46281315
mean anomaly at epoch: 291.2311°
orbit number at epoch: 65768

The dashed part of the orbit path shows where the satellite is in the earth's shadow,  

DLR